Waarnemingen

Advertentie
Mijn weer
L9F, Nederland (6207): temperatuur & dauwpunt: 15.01.2017 11:00:00 - 21.01.2017 11:00:00 (CET)L9F, Nederland (6207): windsnelheid & windstoten: 15.01.2017 11:00:00 - 21.01.2017 11:00:00 (CET)L9F, Nederland (6207): windrichting: 15.01.2017 11:00:00 - 21.01.2017 11:00:00 (CET)L9F, Nederland (6207): luchtdruk: 15.01.2017 11:00:00 - 21.01.2017 11:00:00 (CET)L9F, Nederland (6207): zicht: 15.01.2017 11:00:00 - 21.01.2017 11:00:00 (CET)
Datum & Tijd tt [°C] td [°C] ff [km/u] ff [kn] fx [km/u] fx [kn] dd ppp [hPa] vv [km]
21.01.2017 11:00:00 4,7 1,5 24 13 25 14 ZO 1032,6 10
21.01.2017 10:00:00 4,9 1,5 22 12 25 14 OZO 1032,6 10
21.01.2017 09:00:00 6,6 3,6 14 8 25 14 O 1032,5 49
21.01.2017 08:00:00 5,4 2,2 15 8 22 12 O 1032,4 10
21.01.2017 07:00:00 7,2 4,0 18 10 25 14 O 1032,4 45
21.01.2017 06:00:00 5,7 2,7 15 8 18 10 ZO 1032,7 10
21.01.2017 05:00:00 5,8 2,8 11 6 22 12 O 1033,0 10
21.01.2017 04:00:00 6,3 2,7 11 6 22 12 O 1033,3 10
21.01.2017 03:00:00 8,9 5,0 8 4 18 10 O 1033,5 10
21.01.2017 02:00:00 6,2 2,3 15 8 18 10 OZO 1033,6 10
21.01.2017 01:00:00 6,4 2,6 15 8 18 10 ONO 1034,2 10
21.01.2017 00:00:00 7,2 3,1 11 6 18 10 O 1034,6 10
20.01.2017 23:00:00 9,6 5,5 11 6 18 10 NO 1034,8 10
20.01.2017 22:00:00 6,3 3,6 5 3 14 8 O 1035,0 10
20.01.2017 21:00:00 6,2 2,4 9 5 14 8 NNO 1035,1 10
20.01.2017 20:00:00 6,0 3,1 13 7 14 8 NNW 1034,9 10
20.01.2017 19:00:00 5,5 4,6 8 4 25 14 NNO 1035,0 3,5
20.01.2017 18:00:00 5,0 4,3 13 7 25 14 - 1035,2 3,1
20.01.2017 17:00:00 5,2 3,9 11 6 14 8 W 1035,3 6
20.01.2017 16:00:00 5,7 2,7 13 7 14 8 WZW 1035,2 10
20.01.2017 15:00:00 5,6 2,5 15 8 18 10 ZW 1035,3 10
20.01.2017 14:00:00 5,5 2,6 15 8 18 10 ZW 1035,7 10
20.01.2017 13:00:00 5,5 2,4 15 8 18 10 ZW 1036,0 10
20.01.2017 12:00:00 5,6 2,9 18 10 18 10 ZW 1036,4 10
20.01.2017 11:00:00 6,1 3,3 13 7 14 8 ZW 1036,7 10
20.01.2017 10:00:00 6,3 3,4 11 6 14 8 ZW 1036,5 10
20.01.2017 09:00:00 6,2 3,9 11 6 14 8 ZW 1036,3 10
20.01.2017 08:00:00 6,2 4,0 9 5 11 6 WZW 1036,1 10
20.01.2017 07:00:00 6,1 4,0 9 5 22 12 - 1036,2 10
20.01.2017 06:00:00 6,1 3,8 15 8 25 14 - 1036,5 10
20.01.2017 05:00:00 6,1 3,7 11 6 18 10 - 1036,5 10
20.01.2017 04:00:00 6,0 3,4 9 5 14 8 - 1036,6 10
20.01.2017 03:00:00 5,9 3,2 15 8 14 8 WZW 1036,7 10
20.01.2017 02:00:00 5,8 3,0 15 8 14 8 WZW 1036,8 10
20.01.2017 01:00:00 5,7 2,8 13 7 14 8 WZW 1037,1 10
20.01.2017 00:00:00 5,4 2,8 16 9 18 10 WZW 1037,4 10
19.01.2017 23:00:00 5,5 3,0 18 10 18 10 ZW 1037,6 10
19.01.2017 22:00:00 5,8 3,6 11 6 18 10 ZW 1037,5 10
19.01.2017 21:00:00 6,0 3,6 13 7 14 8 ZW 1037,4 10
19.01.2017 20:00:00 6,0 3,6 11 6 18 10 WZW 1037,4 10
19.01.2017 19:00:00 6,0 3,6 15 8 18 10 ZW 1037,1 10
19.01.2017 18:00:00 5,9 3,3 13 7 14 8 WZW 1037,1 10
19.01.2017 17:00:00 5,9 2,9 11 6 11 6 WZW 1037,1 10
19.01.2017 16:00:00 6,3 3,0 11 6 14 8 WZW 1037,2 27
19.01.2017 15:00:00 5,9 2,8 11 6 11 6 W 1037,3 10
19.01.2017 14:00:00 5,8 2,7 15 8 14 8 WZW 1037,5 10
19.01.2017 13:00:00 5,6 2,5 15 8 18 10 WZW 1037,9 10
19.01.2017 12:00:00 5,5 2,3 16 9 18 10 WZW 1038,1 10
19.01.2017 11:00:00 5,3 2,2 18 10 18 10 ZW 1038,6 10
19.01.2017 10:00:00 4,9 1,9 16 9 22 12 ZW 1038,5 10
19.01.2017 09:00:00 4,5 1,6 18 10 25 14 ZW 1038,2 10
19.01.2017 08:00:00 4,0 1,4 18 10 29 16 ZZW 1038,0 9
19.01.2017 07:00:00 4,1 1,4 22 12 29 16 ZZW 1037,2 9
19.01.2017 06:00:00 4,9 2,1 18 10 22 12 ZZW 1037,6 10
19.01.2017 05:00:00 5,0 2,4 18 10 25 14 ZW 1037,9 9
19.01.2017 04:00:00 4,8 2,1 18 10 25 14 ZZW 1038,0 9
19.01.2017 03:00:00 5,1 2,1 18 10 22 12 ZW 1037,8 13
19.01.2017 02:00:00 5,0 2,2 18 10 22 12 ZW 1038,0 13
19.01.2017 01:00:00 4,9 1,7 22 12 29 16 ZW 1038,2 10
19.01.2017 00:00:00 4,9 2,0 26 14 29 16 ZW 1038,3 9
18.01.2017 23:00:00 4,2 2,6 29 16 29 16 ZW 1038,2 5
18.01.2017 22:00:00 4,2 2,2 29 16 29 16 ZZW 1038,3 5
18.01.2017 21:00:00 3,9 2,2 29 16 29 16 ZZW 1038,4 6
18.01.2017 20:00:00 3,8 1,8 26 14 29 16 ZZW 1038,4 7
18.01.2017 19:00:00 4,4 1,8 22 12 22 12 ZW 1038,6 10
18.01.2017 18:00:00 5,1 0,9 21 11 22 12 ZW 1038,5 10
18.01.2017 17:00:00 4,7 0,5 22 12 25 14 ZW 1038,5 10
18.01.2017 16:00:00 4,2 0,6 28 15 32 18 ZW 1038,7 10
18.01.2017 15:00:00 3,5 0,6 29 16 32 18 ZW 1038,7 10
18.01.2017 14:00:00 2,9 1,0 31 17 32 18 ZZW 1039,0 8
18.01.2017 13:00:00 3,6 -0,2 31 17 32 18 ZW 1039,3 10
18.01.2017 12:00:00 3,1 0,3 31 17 32 18 ZW 1039,3 10
18.01.2017 11:00:00 2,3 -0,1 34 18 32 18 ZZW 1039,3 10
18.01.2017 10:00:00 2,3 -1,3 31 17 32 18 ZZW 1039,2 10
18.01.2017 09:00:00 3,0 -2,7 29 16 29 16 ZZW 1039,1 10
18.01.2017 08:00:00 2,4 -2,8 29 16 32 18 ZZW 1038,4 10
18.01.2017 07:00:00 2,2 -2,4 29 16 29 16 ZZW 1038,4 10
18.01.2017 06:00:00 2,7 -2,3 29 16 36 19 ZZW 1038,3 10
18.01.2017 05:00:00 2,8 -0,7 34 18 32 18 ZZW 1038,3 10
18.01.2017 04:00:00 2,7 -1,2 31 17 32 18 ZZW 1038,6 10
18.01.2017 03:00:00 2,9 -0,5 29 16 32 18 ZZW 1038,9 9
18.01.2017 02:00:00 2,7 -0,7 29 16 29 16 ZZW 1039,1 9
18.01.2017 01:00:00 2,6 -0,5 29 16 32 18 ZZW 1038,9 7
18.01.2017 00:00:00 2,6 0,0 28 15 32 18 ZZW 1039,1 6
17.01.2017 23:00:00 2,3 0,0 31 17 32 18 ZZW 1038,7 6
17.01.2017 22:00:00 2,8 0,2 28 15 29 16 ZZW 1038,7 7
17.01.2017 21:00:00 2,5 -0,1 24 13 25 14 ZZW 1038,7 7
17.01.2017 20:00:00 2,9 -1,0 22 12 25 14 ZZW 1038,6 10
17.01.2017 19:00:00 2,5 -1,4 22 12 25 14 ZZW 1038,4 10
17.01.2017 18:00:00 2,3 -1,2 21 11 22 12 ZZW 1038,1 10
17.01.2017 17:00:00 2,0 -2,1 18 10 22 12 ZZW 1037,9 10
17.01.2017 16:00:00 1,8 -1,4 21 11 22 12 ZZW 1038,0 10
17.01.2017 15:00:00 1,3 -1,6 21 11 22 12 ZZW 1037,9 10
17.01.2017 14:00:00 1,5 -1,2 22 12 25 14 ZZW 1038,1 10
17.01.2017 13:00:00 1,2 -1,4 22 12 25 14 ZZW 1038,0 10
17.01.2017 12:00:00 1,6 -1,6 18 10 22 12 ZZW 1038,0 10
17.01.2017 11:00:00 2,0 -2,1 15 8 18 10 ZZW 1037,6 10
17.01.2017 10:00:00 2,1 -2,0 15 8 18 10 Z 1037,7 10
17.01.2017 09:00:00 2,4 -1,8 15 8 18 10 Z 1036,9 10
17.01.2017 08:00:00 2,4 -1,8 13 7 14 8 ZZW 1036,1 10
17.01.2017 07:00:00 2,8 -1,1 11 6 - - ZZW 1036,0 10
17.01.2017 06:00:00 2,9 -1,5 9 5 11 6 Z 1035,6 10
17.01.2017 05:00:00 3,1 -1,7 8 4 11 6 Z 1035,2 10
17.01.2017 04:00:00 3,2 -2,0 5 3 - - ZZO 1035,3 10
17.01.2017 03:00:00 3,1 -1,4 4 2 7 4 - 1035,0 10
17.01.2017 02:00:00 2,9 -1,7 9 5 11 6 ZZO 1034,2 10
17.01.2017 01:00:00 2,8 -1,7 8 4 11 6 Z 1034,5 10
17.01.2017 00:00:00 2,7 -1,6 8 4 11 6 Z 1034,1 10
16.01.2017 23:00:00 2,8 -1,4 9 5 11 6 Z 1034,0 10
16.01.2017 22:00:00 2,7 -1,9 8 4 11 6 ZZO 1033,3 10
16.01.2017 21:00:00 2,8 -1,9 9 5 18 10 ZZO 1032,7 10
16.01.2017 20:00:00 2,8 -2,4 13 7 14 8 ZO 1031,9 10
16.01.2017 19:00:00 2,9 -3,9 13 7 14 8 ZO 1031,2 10
16.01.2017 18:00:00 2,9 -3,4 11 6 14 8 ZO 1030,9 10
16.01.2017 17:00:00 3,1 -3,1 11 6 14 8 OZO 1030,3 10
16.01.2017 16:00:00 3,6 -3,0 13 7 14 8 OZO 1029,8 10
16.01.2017 15:00:00 3,6 -2,8 11 6 14 8 OZO 1029,3 10
16.01.2017 14:00:00 3,5 -2,2 13 7 22 12 ZZO 1029,1 10
16.01.2017 13:00:00 4,0 -1,6 15 8 18 10 ZO 1028,8 10
16.01.2017 12:00:00 4,4 -3,5 13 7 18 10 OZO 1028,7 10
16.01.2017 11:00:00 4,4 -3,6 18 10 22 12 O 1028,1 10
16.01.2017 10:00:00 7,0 -1,2 22 12 25 14 O 1027,6 10
16.01.2017 09:00:00 7,2 -1,4 16 9 22 12 O 1027,1 10
16.01.2017 08:00:00 4,6 -1,6 11 6 18 10 O 1026,4 10
16.01.2017 07:00:00 4,2 -0,3 8 4 22 12 ONO 1026,2 10
16.01.2017 06:00:00 4,0 -0,6 13 7 22 12 ZO 1025,7 10
16.01.2017 05:00:00 3,8 0,2 22 12 25 14 O 1025,3 10
16.01.2017 04:00:00 4,0 -0,2 24 13 36 19 ONO 1024,8 10
16.01.2017 03:00:00 5,4 1,7 18 10 32 18 NO 1024,4 10
16.01.2017 02:00:00 5,0 -1,1 21 11 22 12 NNO 1024,1 10
16.01.2017 01:00:00 4,6 0,2 21 11 25 14 NO 1024,3 10
16.01.2017 00:00:00 4,5 0,4 35 19 36 19 NO 1024,0 10
15.01.2017 23:00:00 4,9 0,5 13 7 29 16 N 1023,5 10
15.01.2017 22:00:00 4,2 0,1 31 17 32 18 NO 1023,2 10
15.01.2017 21:00:00 5,5 -1,0 18 10 18 10 N 1022,7 10
15.01.2017 20:00:00 4,6 0,1 24 13 32 18 NNO 1022,5 10
15.01.2017 19:00:00 5,8 -0,5 11 6 18 10 N 1021,9 10
15.01.2017 18:00:00 5,7 -0,7 11 6 11 6 N 1021,3 10
15.01.2017 17:00:00 5,3 -1,0 9 5 25 14 NNO 1021,0 10
15.01.2017 16:00:00 5,5 -0,4 15 8 22 12 NW 1020,4 10
15.01.2017 15:00:00 5,7 -1,9 15 8 18 10 NNW 1020,1 10
15.01.2017 14:00:00 5,6 -2,0 13 7 18 10 NNW 1019,9 10
15.01.2017 13:00:00 5,2 -1,3 13 7 18 10 NNW 1019,7 10
15.01.2017 12:00:00 4,9 -1,5 13 7 36 19 NNW 1019,7 10
15.01.2017 11:00:00 4,2 0,2 16 9 40 21 NNW 1019,4 10

tt = temperatuur
td = dauwpunt
ff = windsnelheid
fx = windstoten
dd = windrichting
ppp = luchtdruk
vv = zicht

Weerstations in de omgeving